Вернуться в каталог

ONEWEB-0173

АктивенСвязьPO
NORAD 48069·PAYLOAD·🇬🇧 United Kingdom

Запущен Mar 25, 2021 с Vostochny Cosmodrome

Loading…

Ближайшие Пролёты (ближайшие 24 часа)

TLE

СвежийSource: CelesTrak SupGP

Эпоха: Sep 15, 2026, 04:22 UTC

1 48069C 21025AD  26258.18209907 -.00002526  00000+0 -69251-2 0  2585
2 48069  87.8932 302.3196 0001577  91.2033 301.0149 13.13477316    13

Отслеживайте ONEWEB-0173 в реальном времени с AllMySat

Download on the App Store